Weather History for Hillsdale, MI

Change the Weather History Date:

Thursday, October 4, 2012

  Actual Average Record
Temperature  
Mean Temperature 64 °F -  
Max Temperature 75 °F 67 °F 89 °F (1951)
Min Temperature 53 °F 43 °F 28 °F (1965)
Degree Days  
Heating Degree Days 1    
Growing Degree Days 14 (Base 50)    
Moisture  
Dew Point 52 °F    
Average Humidity 68    
Maximum Humidity 92    
Minimum Humidity 38    
Precipitation  
Precipitation 0.00 in - - ()
Sea Level Pressure  
Sea Level Pressure 30.07 in    
Wind  
Wind Speed 7 mph (SW)    
Max Wind Speed 18 mph    
Max Gust Speed 23 mph    
Visibility 10 miles    
Events Rain    
Averages and records for this station are not official NWS values.
T = Trace of Precipitation, MM = Missing Value Source: NWS Daily Summary

Daily Weather History Graph

Daily Weather History Graph

Search for Another Location

Airport:

Trip Planner

Search our weather history database for the weather conditions in past years. The results will help you decide how hot, cold, wet, or windy it might be!

Date:

Astronomy

Oct. 04, 2012 Rise Set
Actual Time 7:39 AM EDT 7:14 PM EDT
Civil Twilight 7:11 AM EDT 7:41 PM EDT
Nautical Twilight 6:38 AM EDT 8:14 PM EDT
Astronomical Twilight 6:06 AM EDT 8:46 PM EDT
Moon 9:44 PM EDT (10/4) 11:59 AM EDT (10/4)
Length of Visible Light 12h 30m
Length of Day
11h 34m
Waning Gibbous, 82% of the Moon is Illuminated
Oct 4
Waning Gibbous
Oct 8
Last Quarter
Oct 15
New
Oct 21
First Quarter
Oct 29
Full

Hourly Weather History & Observations

Time (EDT) Temp. Dew Point Humidity Pressure Visibility Wind Dir Wind Speed Gust Speed Precip Events Conditions
12:15 AM 57.6 °F 53.2 °F 85% 30.07 in 10.0 mi South 4.6 mph - N/A   Mostly Cloudy
12:34 AM 57.0 °F 52.9 °F 86% 30.08 in 10.0 mi South 4.6 mph - N/A   Mostly Cloudy
12:54 AM 56.7 °F 52.5 °F 86% 30.08 in 10.0 mi SSE 5.8 mph - N/A   Mostly Cloudy
1:14 AM 55.9 °F 52.3 °F 88% 30.07 in 10.0 mi South 4.6 mph - N/A   Scattered Clouds
1:35 AM 56.5 °F 52.7 °F 87% 30.08 in 10.0 mi South 3.5 mph - N/A   Mostly Cloudy
1:54 AM 56.8 °F 52.9 °F 87% 30.08 in 10.0 mi South 5.8 mph - N/A   Overcast
2:15 AM 57.4 °F 52.3 °F 83% 30.08 in 10.0 mi South 6.9 mph - N/A   Scattered Clouds
2:33 AM 56.8 °F 52.2 °F 84% 30.08 in 10.0 mi South 5.8 mph - N/A   Clear
2:54 AM 56.5 °F 52.2 °F 85% 30.08 in 10.0 mi South 4.6 mph - N/A   Clear
3:15 AM 55.9 °F 52.0 °F 87% 30.07 in 10.0 mi SSW 5.8 mph - N/A   Clear
3:34 AM 55.8 °F 52.0 °F 87% 30.07 in 10.0 mi SSW 4.6 mph - N/A   Clear
3:55 AM 56.1 °F 52.0 °F 86% 30.07 in 10.0 mi SSW 8.1 mph - N/A   Clear
4:14 AM 56.1 °F 51.8 °F 85% 30.07 in 10.0 mi SSW 5.8 mph - N/A   Clear
4:35 AM 55.9 °F 51.6 °F 85% 30.07 in 10.0 mi SSW 5.8 mph - N/A   Clear
4:55 AM 55.9 °F 51.6 °F 85% 30.07 in 10.0 mi SSW 5.8 mph - N/A   Clear
5:14 AM 55.8 °F 51.4 °F 85% 30.07 in 10.0 mi SSW 6.9 mph - N/A   Clear
5:35 AM 55.4 °F 51.4 °F 87% 30.07 in 10.0 mi SSW 6.9 mph - N/A   Clear
5:55 AM 55.4 °F 51.4 °F 87% 30.08 in 10.0 mi SSW 6.9 mph - N/A   Clear
6:15 AM 55.2 °F 51.3 °F 87% 30.08 in 10.0 mi SSW 6.9 mph - N/A   Clear
6:35 AM 54.9 °F 51.3 °F 88% 30.08 in 10.0 mi SSW 5.8 mph - N/A   Clear
6:55 AM 54.7 °F 51.3 °F 88% 30.09 in 10.0 mi SW 4.6 mph - N/A   Clear
7:14 AM 54.1 °F 51.3 °F 90% 30.09 in 10.0 mi SSW 5.8 mph - N/A   Clear
7:35 AM 53.8 °F 51.1 °F 91% 30.09 in 10.0 mi SSW 3.5 mph - N/A   Clear
7:54 AM 53.6 °F 51.3 °F 92% 30.09 in 10.0 mi SW 3.5 mph - N/A   Clear
8:15 AM 54.0 °F 51.6 °F 92% 30.09 in 10.0 mi SW 4.6 mph - N/A   Scattered Clouds
8:34 AM 54.9 °F 52.2 °F 91% 30.09 in 10.0 mi SW 6.9 mph - N/A   Clear
8:55 AM 56.7 °F 52.9 °F 87% 30.09 in 10.0 mi SW 8.1 mph - N/A   Mostly Cloudy
9:14 AM 57.7 °F 53.2 °F 85% 30.10 in 10.0 mi SW 5.8 mph - N/A   Scattered Clouds
9:35 AM 58.8 °F 53.6 °F 83% 30.10 in 10.0 mi SW 5.8 mph - N/A   Scattered Clouds
9:55 AM 60.4 °F 54.1 °F 80% 30.10 in 10.0 mi SW 5.8 mph - N/A   Scattered Clouds
10:14 AM 61.3 °F 54.5 °F 78% 30.10 in 10.0 mi SW 5.8 mph - N/A   Clear
10:35 AM 63.7 °F 54.5 °F 72% 30.11 in 10.0 mi SW 5.8 mph - N/A   Scattered Clouds
10:54 AM 65.1 °F 53.8 °F 67% 30.11 in 10.0 mi SW 6.9 mph - N/A   Scattered Clouds
11:15 AM 66.0 °F 54.0 °F 65% 30.12 in 10.0 mi SW 6.9 mph - N/A   Clear
11:35 AM 67.8 °F 52.9 °F 59% 30.12 in 10.0 mi SW 9.2 mph - N/A   Scattered Clouds
11:54 AM 68.2 °F 52.2 °F 56% 30.12 in 10.0 mi WSW 11.5 mph - N/A   Mostly Cloudy
12:15 PM 70.0 °F 51.1 °F 51% 30.12 in 10.0 mi WSW 13.8 mph 18.4 mph N/A   Overcast
12:35 PM 69.6 °F 50.9 °F 51% 30.11 in 10.0 mi SW 12.7 mph 20.7 mph N/A   Scattered Clouds
12:54 PM 71.1 °F 51.4 °F 50% 30.11 in 10.0 mi WSW 9.2 mph 19.6 mph N/A   Clear
1:15 PM 71.1 °F 50.7 °F 49% 30.10 in 10.0 mi SW 9.2 mph 18.4 mph N/A   Clear
1:35 PM 72.3 °F 52.0 °F 49% 30.10 in 10.0 mi WSW 11.5 mph 17.3 mph N/A   Clear
1:54 PM 72.7 °F 51.1 °F 47% 30.09 in 10.0 mi SW 13.8 mph 19.6 mph N/A   Clear
2:34 PM 73.8 °F 49.8 °F 43% 30.07 in 10.0 mi SW 15.0 mph 20.7 mph N/A   Clear
2:55 PM 74.7 °F 50.0 °F 42% 30.07 in 10.0 mi SW 9.2 mph - N/A   Clear
3:15 PM 74.7 °F 50.0 °F 42% 30.06 in 10.0 mi SW 11.5 mph 21.9 mph N/A   Scattered Clouds
3:34 PM 75.4 °F 50.2 °F 41% 30.06 in 10.0 mi WSW 10.4 mph 19.6 mph N/A   Scattered Clouds
3:55 PM 75.7 °F 49.8 °F 40% 30.05 in 10.0 mi WSW 13.8 mph 19.6 mph N/A   Scattered Clouds
4:15 PM 75.6 °F 49.8 °F 40% 30.06 in 10.0 mi SSW 10.4 mph 18.4 mph N/A   Scattered Clouds
4:34 PM 75.6 °F 49.5 °F 40% 30.05 in 10.0 mi WSW 11.5 mph 19.6 mph N/A   Scattered Clouds
4:55 PM 74.7 °F 48.0 °F 39% 30.06 in 10.0 mi SW 15.0 mph 19.6 mph N/A   Scattered Clouds
5:14 PM 75.7 °F 48.2 °F 38% 30.05 in 10.0 mi WSW 13.8 mph 21.9 mph N/A   Scattered Clouds
5:35 PM 75.0 °F 47.5 °F 38% 30.06 in 10.0 mi WSW 13.8 mph 23.0 mph N/A   Clear
5:55 PM 74.8 °F 48.4 °F 39% 30.06 in 10.0 mi WSW 9.2 mph - N/A   Clear
6:14 PM 74.1 °F 49.1 °F 41% 30.05 in 10.0 mi SW 9.2 mph - N/A   Clear
6:35 PM 72.9 °F 50.0 °F 44% 30.04 in 10.0 mi SSW 5.8 mph - N/A   Clear
6:54 PM 72.0 °F 50.2 °F 46% 30.04 in 10.0 mi SSW 5.8 mph - N/A   Clear
7:15 PM 70.2 °F 50.5 °F 50% 30.04 in 10.0 mi SSW 3.5 mph - N/A   Clear
7:35 PM 69.4 °F 50.2 °F 50% 30.03 in 10.0 mi SSW 4.6 mph - N/A   Clear
7:54 PM 68.4 °F 50.4 °F 53% 30.03 in 10.0 mi South 5.8 mph - N/A   Clear
8:15 PM 68.4 °F 50.5 °F 53% 30.03 in 10.0 mi SSW 5.8 mph - N/A   Clear
8:34 PM 68.7 °F 50.5 °F 52% 30.03 in 10.0 mi SSW 6.9 mph - N/A   Scattered Clouds
8:55 PM 69.3 °F 51.1 °F 52% 30.02 in 10.0 mi South 8.1 mph - N/A   Overcast
10:15 PM 69.4 °F 53.2 °F 56% 30.06 in 10.0 mi West 18.4 mph - N/A   Overcast
10:34 PM 67.5 °F 56.8 °F 69% 30.05 in 10.0 mi WNW 15.0 mph 21.9 mph N/A   Overcast
10:55 PM 64.9 °F 58.6 °F 80% 30.06 in 10.0 mi West 10.4 mph - N/A Rain Light Rain
11:15 PM 63.9 °F 59.4 °F 85% 30.06 in 10.0 mi West 11.5 mph 18.4 mph N/A   Overcast
11:35 PM 63.9 °F 58.1 °F 81% 30.05 in 10.0 mi West 6.9 mph - N/A   Mostly Cloudy
11:54 PM 63.9 °F 58.3 °F 82% 30.05 in 10.0 mi West 6.9 mph 17.3 mph N/A   Overcast